OPS 4682 DEB, 26732

Orbit data source: Space-Track

OPS 4682 DEB, 26732 is space debris in LEO originally from a launch on Sat, 03 Apr 1965 UTC launched from the Air Force Western Test Range (AFWTR). Debris objects in space refer to the collection of defunct objects orbiting the Earth. Examples of debris include non-operational satellites, rocket bodies, and fragments generated from explosions, collisions, or faulty payload assembly.

Loading next visibility...
Identifier
26732, 1965-027BF
Orbit
LEO
Country
Flag of USUS
Related business
Manufacturer
Unknown
Mission
Spacecraft
Bus & Motor
Unknown
Mass
Unknown
Launch date (UTC)
1965-04-03 (61 years ago)
Launch vehicle
Unknown
Launch site
Air Force Western Test Range (AFWTR)
Object type
Payload
Rocket body
Debris
Shape & HBR
Unknown shape, 0.1 m
Radar Cross Section
Medium (>0.1 m² and <1 m²)

Expand to show TLE details & history
Last TLE update: 22 hours ago

TLE from 22 hours ago
0 OPS 4682 DEB
1 26732U 65027BF  26207.41724582 -.00000019  00000-0 -94601-4 0  9996
2 26732  90.2573  12.0713 0063160  82.6940 307.7578 12.95998554500253
Epoch: 2026-07-26T10:00Z
TLE epoch observation values (Epoch: 2026-07-26T10:00:50.038Z)
Latitude
29.92257°
Longitude
-82.40001°
Altitude
1,252.128 km
Speed
7.246 km/s
True Right ascension
00h 47m 41s
True Declination
29° 47' 01"
Sunlit
Object was in daylight at epoch
Visualization orbit readout
Latitude
Unknown
Longitude
Unknown
Altitude
Unknown
Speed
Unknown
Apparent Right ascension
Unknown
Apparent Declination
Unknown
Sunlit
N/A
Visualization observer readout
Local Sidereal Time
21:03:59
Azimuth
Unknown
Elevation
Unknown
Doppler factor
Unknown
Orbital elements
Apogee altitude
1,323.274 km
Perigee altitude
1,226.601 km
Semi-major axis
7,653.075 km
Eccentricity
0.00632
Inclination
90.2573°
RAAN
12.0713°
Arg. of periapsis
82.694°
True anomaly
307.18282°
Mean anomaly
307.7578°
Eccentric anomaly
307.47059°
Mean motion
3.24182 °/min
Orbital period
111.05 mins
BSTAR
-0.000094601
Loading maneuver chart data...
Computing Atmospheric mass density...
Loading historical data...
Loading historical data...
Loading historical data...
Loading historical data...
Loading historical data...
Loading historical data...
Loading historical data...

Documentation

Showing up to 5 results
|